カタログに戻る

SHIJIAN 6 05A

SJ-6 05A

運用中科学SSO
NORAD 49961·PAYLOAD·🇨🇳 China

打ち上げ Dec 10, 2021 から Jiuquan Satellite Launch Center

Loading…

次のパス (今後24時間)

TLE

最新Source: Space-Track

元期: Sep 14, 2026, 04:54 UTC

1 49961U 21122A   26257.20419368  .00001099  00000-0  93435-4 0  9999
2 49961  97.4230 221.5179 0003266  60.1194 300.0355 14.99765697262099

AllMySatでSHIJIAN 6 05Aをリアルタイム追跡

Download on the App Store